Time,TemperatureF,DewpointF,PressureIn,WindDirection,WindDirectionDegrees,WindSpeedMPH,WindSpeedGustMPH,Humidity,HourlyPrecipIn,Conditions,Clouds,dailyrainin,SoftwareType,DateUTC
2013-04-09 00:03:00,47.0,39.0,30.10,ESE,103,0.0,1.0,73,0.00,,,0.00,,2013-04-09 04:03:00,
2013-04-09 00:13:00,47.0,39.0,30.10,ESE,103,0.0,1.0,73,0.00,,,0.00,,2013-04-09 04:13:00,
2013-04-09 00:23:00,47.0,39.0,30.10,ESE,103,0.0,1.0,74,0.00,,,0.00,,2013-04-09 04:23:00,
2013-04-09 00:33:00,47.0,39.0,30.09,ESE,103,0.0,1.0,74,0.00,,,0.00,,2013-04-09 04:33:00,
2013-04-09 00:43:00,47.0,39.0,30.09,ESE,103,0.0,1.0,74,0.00,,,0.00,,2013-04-09 04:43:00,
2013-04-09 00:52:00,47.0,39.0,30.09,ESE,103,0.0,1.0,74,0.00,,,0.00,,2013-04-09 04:52:00,
2013-04-09 01:02:00,47.0,39.0,30.09,NW,307,0.0,1.0,75,0.00,,,0.00,,2013-04-09 05:02:00,
2013-04-09 01:12:00,47.0,39.0,30.08,ESE,117,0.0,2.0,75,0.00,,,0.00,,2013-04-09 05:12:00,
2013-04-09 01:22:00,47.0,39.0,30.08,ESE,117,0.0,2.0,75,0.00,,,0.00,,2013-04-09 05:22:00,
2013-04-09 01:32:00,47.0,39.0,30.07,ESE,116,0.0,1.0,75,0.00,,,0.00,,2013-04-09 05:32:00,
2013-04-09 01:43:00,48.0,40.0,30.06,ESE,122,0.0,2.0,74,0.00,,,0.00,,2013-04-09 05:43:00,
2013-04-09 01:52:00,48.0,40.0,30.06,ESE,122,0.0,2.0,74,0.00,,,0.00,,2013-04-09 05:52:00,
2013-04-09 02:02:00,48.0,40.0,30.05,ESE,105,1.0,3.0,74,0.00,,,0.00,,2013-04-09 06:02:00,
2013-04-09 02:12:00,48.0,40.0,30.04,SE,125,0.0,4.0,73,0.00,,,0.00,,2013-04-09 06:12:00,
2013-04-09 02:22:00,48.0,40.0,30.04,SE,125,0.0,4.0,73,0.00,,,0.00,,2013-04-09 06:22:00,
2013-04-09 02:32:00,48.0,40.0,30.04,ESE,108,0.0,3.0,73,0.00,,,0.00,,2013-04-09 06:32:00,
2013-04-09 02:42:00,48.0,40.0,30.04,ESE,108,0.0,3.0,73,0.00,,,0.00,,2013-04-09 06:42:00,
2013-04-09 02:52:00,48.0,40.0,30.02,SE,124,1.0,5.0,73,0.00,,,0.00,,2013-04-09 06:52:00,
2013-04-09 03:02:00,48.0,40.0,30.02,ESE,111,0.0,1.0,75,0.00,,,0.00,,2013-04-09 07:02:00,
2013-04-09 03:13:00,48.0,40.0,30.02,ESE,111,0.0,1.0,75,0.00,,,0.00,,2013-04-09 07:13:00,
2013-04-09 03:22:00,48.0,40.0,30.01,NE,41,0.0,1.0,75,0.00,,,0.00,,2013-04-09 07:22:00,
2013-04-09 03:32:00,47.0,39.0,30.01,ENE,65,0.0,1.0,75,0.00,,,0.00,,2013-04-09 07:32:00,
2013-04-09 03:42:00,47.0,39.0,30.01,ENE,65,0.0,1.0,75,0.00,,,0.00,,2013-04-09 07:42:00,
2013-04-09 03:53:00,47.0,40.0,30.00,ENE,68,0.0,1.0,76,0.00,,,0.00,,2013-04-09 07:53:00,
2013-04-09 04:03:00,47.0,40.0,29.99,East,101,0.0,1.0,76,0.00,,,0.00,,2013-04-09 08:03:00,
2013-04-09 04:13:00,47.0,40.0,29.99,East,101,0.0,1.0,76,0.00,,,0.00,,2013-04-09 08:13:00,
2013-04-09 04:22:00,47.0,39.0,29.98,ESE,111,0.0,3.0,75,0.00,,,0.00,,2013-04-09 08:22:00,
2013-04-09 04:32:00,47.0,40.0,29.97,ESE,117,0.0,1.0,76,0.00,,,0.00,,2013-04-09 08:32:00,
2013-04-09 04:42:00,47.0,40.0,29.97,ESE,117,0.0,1.0,76,0.00,,,0.00,,2013-04-09 08:42:00,
2013-04-09 04:52:00,47.0,40.0,29.98,North,349,0.0,2.0,77,0.00,,,0.00,,2013-04-09 08:52:00,
2013-04-09 05:02:00,47.0,40.0,29.97,North,350,0.0,1.0,77,0.00,,,0.00,,2013-04-09 09:02:00,
2013-04-09 05:12:00,47.0,40.0,29.97,North,350,0.0,1.0,77,0.00,,,0.00,,2013-04-09 09:12:00,
2013-04-09 05:22:00,47.0,41.0,30.01,WNW,297,2.0,2.0,81,0.00,,,0.00,,2013-04-09 09:22:00,
2013-04-09 05:33:00,46.0,42.0,30.01,ESE,109,0.0,4.0,86,0.03,,,0.03,,2013-04-09 09:33:00,
2013-04-09 05:43:00,46.0,42.0,30.01,ESE,109,0.0,4.0,86,0.03,,,0.03,,2013-04-09 09:43:00,
2013-04-09 05:52:00,45.0,43.0,29.98,ESE,109,0.0,1.0,91,0.04,,,0.04,,2013-04-09 09:52:00,
2013-04-09 06:04:00,45.0,43.0,29.96,ESE,112,0.0,1.0,92,0.05,,,0.05,,2013-04-09 10:04:00,
2013-04-09 06:13:00,45.0,43.0,29.96,ESE,112,0.0,1.0,92,0.05,,,0.05,,2013-04-09 10:13:00,
2013-04-09 06:23:00,44.0,42.0,29.94,ESE,123,0.0,1.0,93,0.05,,,0.05,,2013-04-09 10:23:00,
2013-04-09 06:33:00,44.0,42.0,29.95,NW,309,0.0,1.0,94,0.02,,,0.05,,2013-04-09 10:33:00,
2013-04-09 06:43:00,44.0,42.0,29.95,NW,309,0.0,1.0,94,0.02,,,0.05,,2013-04-09 10:43:00,
2013-04-09 06:54:00,44.0,43.0,29.95,NW,309,1.0,1.0,95,0.01,,,0.05,,2013-04-09 10:54:00,
2013-04-09 07:02:00,44.0,43.0,29.95,NW,309,0.0,0.0,95,0.00,,,0.05,,2013-04-09 11:02:00,
2013-04-09 07:12:00,44.0,43.0,29.95,NW,309,0.0,0.0,95,0.00,,,0.05,,2013-04-09 11:12:00,
2013-04-09 07:22:00,44.0,43.0,29.94,NW,309,0.0,0.0,95,0.00,,,0.05,,2013-04-09 11:22:00,
2013-04-09 07:32:00,44.0,43.0,29.94,NW,309,0.0,0.0,96,0.00,,,0.05,,2013-04-09 11:32:00,
2013-04-09 07:42:00,44.0,43.0,29.94,NW,309,0.0,0.0,96,0.00,,,0.05,,2013-04-09 11:42:00,
2013-04-09 07:52:00,45.0,44.0,29.94,NW,309,0.0,0.0,95,0.00,,,0.05,,2013-04-09 11:52:00,
2013-04-09 08:02:00,45.0,44.0,29.93,NW,309,0.0,1.0,96,0.00,,,0.05,,2013-04-09 12:02:00,
2013-04-09 08:12:00,45.0,44.0,29.93,NW,309,0.0,1.0,96,0.00,,,0.05,,2013-04-09 12:12:00,
2013-04-09 08:22:00,46.0,45.0,29.93,NW,309,0.0,1.0,96,0.00,,,0.05,,2013-04-09 12:22:00,
2013-04-09 08:32:00,46.0,45.0,29.93,North,353,0.0,1.0,95,0.00,,,0.05,,2013-04-09 12:32:00,
2013-04-09 08:42:00,46.0,45.0,29.93,North,353,0.0,1.0,95,0.00,,,0.05,,2013-04-09 12:42:00,
2013-04-09 08:53:00,46.0,44.0,29.92,North,352,0.0,1.0,93,0.00,,,0.05,,2013-04-09 12:53:00,
2013-04-09 09:03:00,47.0,45.0,29.92,North,353,0.0,0.0,93,0.00,,,0.05,,2013-04-09 13:03:00,
2013-04-09 09:12:00,47.0,45.0,29.92,North,353,0.0,0.0,93,0.00,,,0.05,,2013-04-09 13:12:00,
2013-04-09 09:23:00,47.0,45.0,29.92,North,353,0.0,0.0,93,0.00,,,0.05,,2013-04-09 13:23:00,
2013-04-09 09:33:00,48.0,45.0,29.90,North,357,0.0,1.0,90,0.00,,,0.05,,2013-04-09 13:33:00,
2013-04-09 09:43:00,48.0,45.0,29.90,North,357,0.0,1.0,90,0.00,,,0.05,,2013-04-09 13:43:00,
2013-04-09 09:52:00,49.0,46.0,29.90,East,101,1.0,1.0,89,0.00,,,0.05,,2013-04-09 13:52:00,
2013-04-09 10:03:00,49.0,46.0,29.91,WNW,297,1.0,2.0,90,0.00,,,0.05,,2013-04-09 14:03:00,
2013-04-09 10:12:00,49.0,46.0,29.91,WNW,297,1.0,2.0,90,0.00,,,0.05,,2013-04-09 14:12:00,
2013-04-09 10:22:00,49.0,46.0,29.91,WNW,298,2.0,4.0,89,0.00,,,0.05,,2013-04-09 14:22:00,
2013-04-09 10:33:00,49.0,46.0,29.91,WNW,282,1.0,4.0,90,0.00,,,0.05,,2013-04-09 14:33:00,
2013-04-09 10:43:00,49.0,46.0,29.91,WNW,282,1.0,4.0,90,0.00,,,0.05,,2013-04-09 14:43:00,
2013-04-09 10:52:00,51.0,48.0,29.91,WNW,287,2.0,6.0,88,0.00,,,0.05,,2013-04-09 14:52:00,
2013-04-09 11:02:00,51.0,47.0,29.91,North,349,2.0,5.0,87,0.00,,,0.05,,2013-04-09 15:02:00,
2013-04-09 11:13:00,51.0,47.0,29.91,North,349,2.0,5.0,87,0.00,,,0.05,,2013-04-09 15:13:00,
2013-04-09 11:23:00,54.0,49.0,29.91,NNW,338,3.0,7.0,82,0.00,,,0.05,,2013-04-09 15:23:00,
2013-04-09 11:33:00,55.0,49.0,29.91,SW,228,2.0,6.0,80,0.00,,,0.05,,2013-04-09 15:33:00,
2013-04-09 11:43:00,55.0,49.0,29.91,SW,228,2.0,6.0,80,0.00,,,0.05,,2013-04-09 15:43:00,
2013-04-09 11:54:00,58.0,50.0,29.89,SE,136,2.0,9.0,76,0.00,,,0.05,,2013-04-09 15:54:00,
2013-04-09 12:03:00,59.0,51.0,29.90,SE,140,2.0,6.0,74,0.00,,,0.05,,2013-04-09 16:03:00,
2013-04-09 12:13:00,59.0,51.0,29.90,SE,140,2.0,6.0,74,0.00,,,0.05,,2013-04-09 16:13:00,
2013-04-09 12:23:00,63.0,51.0,29.89,NW,315,3.0,7.0,66,0.00,,,0.05,,2013-04-09 16:23:00,
2013-04-09 12:33:00,64.0,51.0,29.88,WSW,246,2.0,9.0,63,0.00,,,0.05,,2013-04-09 16:33:00,
2013-04-09 12:42:00,64.0,51.0,29.88,WSW,246,2.0,9.0,63,0.00,,,0.05,,2013-04-09 16:42:00,
2013-04-09 12:54:00,65.0,51.0,29.88,NW,322,3.0,8.0,61,0.00,,,0.05,,2013-04-09 16:54:00,
2013-04-09 13:02:00,66.0,50.0,29.88,NW,318,5.0,12.0,57,0.00,,,0.05,,2013-04-09 17:02:00,
2013-04-09 13:13:00,66.0,50.0,29.88,NW,318,5.0,12.0,57,0.00,,,0.05,,2013-04-09 17:13:00,
2013-04-09 13:23:00,66.0,50.0,29.88,ESE,110,4.0,12.0,56,0.00,,,0.05,,2013-04-09 17:23:00,
2013-04-09 13:32:00,66.0,48.0,29.88,WSW,252,4.0,14.0,52,0.00,,,0.05,,2013-04-09 17:32:00,
2013-04-09 13:43:00,66.0,48.0,29.88,WSW,252,4.0,14.0,52,0.00,,,0.05,,2013-04-09 17:43:00,
2013-04-09 13:54:00,66.0,48.0,29.90,WNW,293,3.0,8.0,53,0.00,,,0.05,,2013-04-09 17:54:00,
2013-04-09 14:02:00,68.0,48.0,29.90,SSW,211,5.0,14.0,48,0.00,,,0.05,,2013-04-09 18:02:00,
2013-04-09 14:13:00,68.0,48.0,29.90,SSW,211,5.0,14.0,48,0.00,,,0.05,,2013-04-09 18:13:00,
2013-04-09 14:22:00,69.0,48.0,29.91,WSW,247,3.0,13.0,48,0.00,,,0.05,,2013-04-09 18:22:00,
2013-04-09 14:33:00,68.0,49.0,29.91,NW,319,4.0,12.0,50,0.00,,,0.05,,2013-04-09 18:33:00,
2013-04-09 14:43:00,68.0,49.0,29.91,NW,319,4.0,12.0,50,0.00,,,0.05,,2013-04-09 18:43:00,
2013-04-09 14:52:00,68.0,49.0,29.91,West,259,3.0,11.0,51,0.00,,,0.05,,2013-04-09 18:52:00,
2013-04-09 15:03:00,68.0,49.0,29.91,West,259,3.0,11.0,51,0.00,,,0.05,,2013-04-09 19:03:00,
2013-04-09 15:12:00,68.0,49.0,29.91,West,259,3.0,11.0,51,0.00,,,0.05,,2013-04-09 19:12:00,
2013-04-09 15:22:00,68.0,49.0,29.91,West,259,3.0,11.0,51,0.00,,,0.05,,2013-04-09 19:22:00,
2013-04-09 15:32:00,68.0,46.0,29.92,SSE,150,2.0,9.0,45,0.00,,,0.05,,2013-04-09 19:32:00,
2013-04-09 15:42:00,68.0,46.0,29.92,SSE,150,2.0,9.0,45,0.00,,,0.05,,2013-04-09 19:42:00,
2013-04-09 15:52:00,68.0,46.0,29.91,NW,324,3.0,10.0,45,0.00,,,0.05,,2013-04-09 19:52:00,
2013-04-09 16:03:00,68.0,45.0,29.92,NW,309,4.0,10.0,43,0.00,,,0.05,,2013-04-09 20:03:00,
2013-04-09 16:12:00,68.0,45.0,29.92,NW,309,4.0,10.0,43,0.00,,,0.05,,2013-04-09 20:12:00,
2013-04-09 16:23:00,69.0,46.0,29.91,SW,219,2.0,9.0,43,0.00,,,0.05,,2013-04-09 20:23:00,
2013-04-09 16:34:00,68.0,45.0,29.93,West,281,2.0,11.0,44,0.00,,,0.05,,2013-04-09 20:34:00,
2013-04-09 16:43:00,68.0,45.0,29.93,West,281,2.0,11.0,44,0.00,,,0.05,,2013-04-09 20:43:00,
2013-04-09 16:53:00,68.0,45.0,29.93,West,281,3.0,9.0,43,0.00,,,0.05,,2013-04-09 20:53:00,
2013-04-09 17:02:00,67.0,43.0,29.93,West,274,4.0,9.0,42,0.00,,,0.05,,2013-04-09 21:02:00,
2013-04-09 17:13:00,67.0,43.0,29.93,West,274,4.0,9.0,42,0.00,,,0.05,,2013-04-09 21:13:00,
2013-04-09 17:23:00,67.0,43.0,29.93,West,274,4.0,9.0,42,0.00,,,0.05,,2013-04-09 21:23:00,
2013-04-09 17:33:00,66.0,42.0,29.94,NW,305,3.0,8.0,42,0.00,,,0.05,,2013-04-09 21:33:00,
2013-04-09 17:42:00,66.0,42.0,29.94,NW,305,3.0,8.0,42,0.00,,,0.05,,2013-04-09 21:42:00,
2013-04-09 17:53:00,66.0,43.0,29.95,NW,316,3.0,5.0,43,0.00,,,0.05,,2013-04-09 21:53:00,
2013-04-09 18:03:00,65.0,43.0,29.96,WNW,299,3.0,5.0,44,0.00,,,0.05,,2013-04-09 22:03:00,
2013-04-09 18:13:00,65.0,43.0,29.96,WNW,299,3.0,5.0,44,0.00,,,0.05,,2013-04-09 22:13:00,
2013-04-09 18:23:00,65.0,43.0,29.98,West,281,1.0,5.0,45,0.00,,,0.05,,2013-04-09 22:23:00,
2013-04-09 18:33:00,64.0,43.0,29.97,NW,319,1.0,6.0,47,0.00,,,0.05,,2013-04-09 22:33:00,
2013-04-09 18:42:00,64.0,43.0,29.97,NW,319,1.0,6.0,47,0.00,,,0.05,,2013-04-09 22:42:00,
2013-04-09 18:54:00,63.0,43.0,29.97,ESE,117,1.0,4.0,48,0.00,,,0.05,,2013-04-09 22:54:00,
2013-04-09 19:03:00,62.0,43.0,29.97,NW,315,0.0,1.0,50,0.00,,,0.05,,2013-04-09 23:03:00,
2013-04-09 19:13:00,62.0,43.0,29.97,NW,315,0.0,1.0,50,0.00,,,0.05,,2013-04-09 23:13:00,
2013-04-09 19:23:00,61.0,43.0,29.97,NW,320,0.0,1.0,52,0.00,,,0.05,,2013-04-09 23:23:00,
2013-04-09 19:32:00,59.0,43.0,29.98,NW,320,0.0,0.0,56,0.00,,,0.05,,2013-04-09 23:32:00,
2013-04-09 19:42:00,59.0,43.0,29.98,NW,320,0.0,0.0,56,0.00,,,0.05,,2013-04-09 23:42:00,
2013-04-09 19:52:00,58.0,43.0,29.98,NW,321,0.0,1.0,58,0.00,,,0.05,,2013-04-09 23:52:00,
2013-04-09 20:03:00,58.0,43.0,29.98,NW,321,0.0,1.0,58,0.00,,,0.05,,2013-04-10 00:03:00,
2013-04-09 20:12:00,58.0,43.0,29.98,NW,321,0.0,1.0,58,0.00,,,0.05,,2013-04-10 00:12:00,
2013-04-09 20:23:00,56.0,43.0,29.98,NW,321,0.0,0.0,62,0.00,,,0.05,,2013-04-10 00:23:00,
2013-04-09 20:33:00,55.0,43.0,29.99,NW,321,0.0,0.0,65,0.00,,,0.05,,2013-04-10 00:33:00,
2013-04-09 20:42:00,55.0,43.0,29.99,NW,321,0.0,0.0,65,0.00,,,0.05,,2013-04-10 00:42:00,
2013-04-09 20:52:00,54.0,44.0,30.00,NW,321,0.0,1.0,69,0.00,,,0.05,,2013-04-10 00:52:00,
2013-04-09 21:02:00,54.0,44.0,30.02,NW,321,0.0,0.0,68,0.00,,,0.05,,2013-04-10 01:02:00,
2013-04-09 21:12:00,53.0,43.0,30.03,NW,321,0.0,0.0,70,0.00,,,0.05,,2013-04-10 01:12:00,
2013-04-09 21:23:00,53.0,43.0,30.03,NW,321,0.0,0.0,70,0.00,,,0.05,,2013-04-10 01:23:00,
2013-04-09 21:32:00,52.0,43.0,30.04,NW,321,0.0,0.0,72,0.00,,,0.05,,2013-04-10 01:32:00,
2013-04-09 21:43:00,52.0,43.0,30.04,NW,321,0.0,0.0,72,0.00,,,0.05,,2013-04-10 01:43:00,
2013-04-09 21:53:00,51.0,43.0,30.04,NE,40,0.0,0.0,73,0.00,,,0.05,,2013-04-10 01:53:00,
2013-04-09 22:02:00,51.0,43.0,30.03,NE,40,0.0,0.0,75,0.00,,,0.05,,2013-04-10 02:02:00,
2013-04-09 22:13:00,51.0,43.0,30.03,NE,40,0.0,0.0,75,0.00,,,0.05,,2013-04-10 02:13:00,
2013-04-09 22:22:00,50.0,43.0,30.03,WNW,283,0.0,1.0,77,0.00,,,0.05,,2013-04-10 02:22:00,
2013-04-09 22:32:00,51.0,44.0,30.03,SE,125,0.0,1.0,76,0.00,,,0.05,,2013-04-10 02:32:00,
2013-04-09 22:43:00,51.0,44.0,30.03,SE,125,0.0,1.0,76,0.00,,,0.05,,2013-04-10 02:43:00,
2013-04-09 22:53:00,51.0,44.0,30.04,SE,125,0.0,1.0,76,0.00,,,0.05,,2013-04-10 02:53:00,
2013-04-09 23:03:00,51.0,44.0,30.04,SE,125,0.0,1.0,77,0.00,,,0.05,,2013-04-10 03:03:00,
2013-04-09 23:12:00,51.0,44.0,30.04,SE,125,0.0,1.0,77,0.00,,,0.05,,2013-04-10 03:12:00,
2013-04-09 23:22:00,50.0,43.0,30.02,West,278,0.0,1.0,77,0.00,,,0.05,,2013-04-10 03:22:00,
2013-04-09 23:33:00,49.0,43.0,30.01,SE,129,0.0,2.0,79,0.00,,,0.05,,2013-04-10 03:33:00,
2013-04-09 23:43:00,49.0,43.0,30.01,SE,129,0.0,2.0,79,0.00,,,0.05,,2013-04-10 03:43:00,
2013-04-09 23:53:00,49.0,43.0,30.01,ESE,121,0.0,2.0,80,0.00,,,0.05,,2013-04-10 03:53:00,